Location: Hobi?a Gr?di?te
(45.4833°N, 22.7833°E)
Time: 20:01:50
(UTC+00:00)

BREEZE-M DEB (TANK) - Pass Details

Date: 28 January 2023
Orbit: 283 x 16484 km, 49.4° (Epoch: 23 March)

Event Time Altitude Azimuth Distance (km) Brightness Sun altitude
Rises 15:32:56 0° 292° (WNW) 2,175 6.6 -1.4°
Reaches altitude 10° 15:34:14 10° 295° (WNW) 1,539 5.8 -1.6°
Maximum altitude 15:37:08 72° 20° (NNE) 739 3.4 -2.1°
Drops below altitude 10° 15:46:18 10° 106° (ESE) 4,663 7.1 -3.6°
Sets 15:53:37 0° 109° (ESE) 7,687 8.2 -4.8°
